Regional Weather Roundup
Issued by NWS

Home | Current Version | Previous Version | Graphics & Text | Print | Product List | Glossary On
Versions: 1 2 3 4 5 6 7 8 9 10 11 12 13 14 15 16 17 18 19 20 21 22 23 24 25 26 27 28 29 30 31 32 33 34 35 36 37 38 39 40 41 42 43 44 45 46 47 48 49 50
000
ASUS45 KCYS 200910
RWRWY

WYOMING REGIONAL WEATHER ROUNDUP
NATIONAL WEATHER SERVICE CHEYENNE WY
300 AM MDT WED AUG 20 2014

NOTE:  "FAIR" INDICATES FEW OR NO CLOUDS BELOW 12,000 FEET
WITH NO SIGNIFICANT WEATHER AND/OR OBSTRUCTIONS TO VISIBILITY.

WYZ001-201000-
YELLOWSTONE NATIONAL PARK

CITY           SKY/WX    TMP DP  RH WIND       PRES   REMARKS
LK YELLOWSTONE   N/A     43  41  93 CALM      30.09F
W YELLOWSTONE  NOT AVBL

$$
WYZ002>013-054>058-071-098>099-201000-
NORTHERN WYOMING

CITY           SKY/WX    TMP DP  RH WIND       PRES   REMARKS
JACKSON        MOCLDY    45  45 100 CALM      30.01S
CODY           CLOUDY    66  45  45 W10G21    29.86S
GREYBULL       CLOUDY    69  54  58 CALM      29.77F
WORLAND        CLOUDY    66  53  63 E6        29.79S
SHERIDAN       CLOUDY    71  44  37 CALM      29.75S
BUFFALO        CLOUDY    66  46  48 W3        29.81S
GILLETTE       CLOUDY    72  46  39 SW15      29.76R
HULETT         FAIR      75  45  33 MISG      29.77
NEWCASTLE      FAIR      70  54  56 SE7       29.81

$$
WYZ014>020-022>026-101>103-201000-
CENTRAL WYOMING

CITY           SKY/WX    TMP DP  RH WIND       PRES   REMARKS
BIG PINEY      PTCLDY    48  43  82 SW3       30.04F
PINEDALE       MOSUNNY   46  43  87 CALM      30.03F
DUBOIS         FAIR      52  41  66 W10G16    30.00F
LANDER         PTCLDY    62  42  47 W8        29.89R
RIVERTON       PTCLDY    60  44  55 NW13      29.88R
CASPER         MOCLDY    64  49  57 SW5       29.88S
DOUGLAS        CLOUDY    70  49  47 SW14      29.88S

$$
WYZ021-027>030-104>119-201000-
SOUTHERN WYOMING

CITY           SKY/WX    TMP DP  RH WIND       PRES   REMARKS
EVANSTON       MOCLDY    53  50  89 S5        30.05F
KEMMERER       PTSUNNY   50  45  81 NW5       30.06F
FORT BRIDGER   CLOUDY    55  52  90 W5        30.07F
ROCK SPRINGS   CLOUDY    54  49  83 SW8       30.03S
DIXON          RAIN      57  55  95 E3        30.06F
RAWLINS        LGT RAIN  57  52  83 SW14      30.02S
SARATOGA       CLOUDY    54  52  94 MISG      30.04F
LARAMIE        LGT RAIN  55  51  86 SW6       30.06S
CHEYENNE       CLOUDY    63  51  65 W3        29.96F
TORRINGTON     CLOUDY    68  52  56 SW3       29.82S
PINE BLUFFS    DRIZZLE   61  54  77 W5        29.91R

$$


USA.gov is the U.S. government's official web portal to all federal, state and local government web resources and services.